Simultaneous Nadir Overpasses (SNOs) Predictions

Prediction of SNOs between AQUA and METOP-B Satellite Orbit:

Table of predicted SNOs for the next 14.0 days since TLE Epoch: 4/17/2021
Index Date (AQUA) Time (AQUA) Lat,Lon (AQUA) SZA (AQUA ) Date (METOP-B) Time (METOP-B) Lat,Lon (METOP-B) SZA (METOP-B ) Distance(km) Time Diff (sec)
1 04/19/2021 06:20:35 73.38, 80.00 62.08 04/19/2021 06:19:26 73.36, 78.22 62.13 56.72 69
2 04/19/2021 07:10:09 -73.84,-113.33 117.46 04/19/2021 07:09:58 -73.83,-113.39 117.46 2.31 11
3 04/19/2021 07:59:38 73.90, 54.16 62.61 04/19/2021 08:00:37 73.89, 54.10 62.59 2.43 59
4 04/22/2021 01:54:53 73.60, 145.98 61.35 04/22/2021 01:53:42 73.54, 145.03 61.33 30.70 71
5 04/22/2021 02:44:23 -73.84, -46.89 118.42 04/22/2021 02:44:17 -73.85, -46.91 118.40 1.87 6
6 04/22/2021 03:33:52 73.91, 120.58 61.65 04/22/2021 03:34:56 73.92, 120.57 61.65 0.62 64
7 04/24/2021 21:29:11 73.77,-147.95 60.59 04/24/2021 21:27:58 73.76,-148.04 60.60 2.96 73
8 04/24/2021 22:18:38 -73.85, 19.53 119.34 04/24/2021 22:18:38 -73.83, 19.45 119.35 2.97 0
9 04/24/2021 23:08:07 73.93,-173.01 60.73 04/24/2021 23:09:16 73.94,-172.96 60.74 2.12 69
10 04/27/2021 17:03:26 73.80, -81.57 59.71 04/27/2021 17:02:18 73.78, -81.58 59.71 1.40 68
11 04/27/2021 17:52:53 -73.86, 85.93 120.23 04/27/2021 17:52:58 -73.86, 85.92 120.24 0.71 5
12 04/27/2021 18:42:23 74.00,-106.74 59.91 04/27/2021 18:43:35 74.01,-106.38 59.90 11.20 72
13 04/30/2021 12:37:40 73.83, -15.19 58.87 04/30/2021 12:36:37 73.80, -15.12 58.85 3.34 63
14 04/30/2021 13:27:07 -73.89, 152.32 121.08 04/30/2021 13:27:17 -73.88, 152.39 121.09 2.18 10



Historial Predications of SNOs between AQUA and METOP-B
